Volver al catálogo

STARLINK-2450

ActivoComunicacionesVLEO
NORAD 48113·PAYLOAD·🇺🇸 United States

Lanzado Apr 7, 2021 desde Cape Canaveral Space Force Station

Loading…

Próximos Pases (próximas 24 horas)

TLE

ActualizadoSource: CelesTrak SupGP

Época: Sep 14, 2026, 21:42 UTC

1 48113C 21027X   26257.90465278 -.00022949  00000+0 -73792-3 0  2577
2 48113  53.1611   4.7412 0001180  81.0093 279.6924 15.31716290    10

Sigue STARLINK-2450 en tiempo real con AllMySat

Download on the App Store